owner,sensor,date,latitude,longitude,vertical_datum,wind_speed,wind_to_direction,wind_speed_of_gust,qcFlag 
TABS,ioos:station:wmo:42047:1,2007-09-01T03:09:00Z,27.8966,-93.5973,4.0,2.479697562,118.9427448,3.95,'11111222,11111222,11111222' 
TABS,ioos:station:wmo:42047:1,2007-09-01T03:39:00Z,27.8966,-93.5973,4.0,2.59356897,119.8274358,5.74,'11111222,11111222,11111222' 
TABS,ioos:station:wmo:42047:1,2007-09-01T04:09:00Z,27.8966,-93.5973,4.0,2.633040068,125.2597608,4.26,'11111222,11111222,11111222' 
TABS,ioos:station:wmo:42047:1,2007-09-01T04:39:00Z,27.8966,-93.5973,4.0,3.048212591,126.1935436,4.75,'11111222,11111222,11111222' 
TABS,ioos:station:wmo:42047:1,2007-09-01T05:09:00Z,27.8966,-93.5973,4.0,4.124039282,126.6201559,5.7,'11111222,11111222,11111222' 
TABS,ioos:station:wmo:42047:1,2007-09-01T05:39:00Z,27.8966,-93.5973,4.0,4.981214711,109.344705,6.15,'11111222,11111222,11111222' 
TABS,ioos:station:wmo:42047:1,2007-09-01T06:09:00Z,27.8966,-93.5973,4.0,4.171294763,97.02319833,6.23,'11111222,11111222,11111222' 
TABS,ioos:station:wmo:42047:1,2007-09-01T06:39:00Z,27.8966,-93.5973,4.0,3.936965837,96.71024203,6.61,'11111222,11111222,11111222' 
TABS,ioos:station:wmo:42047:1,2007-09-01T07:09:00Z,27.8966,-93.5973,4.0,3.154964342,68.23194373,5.16,'11111222,11111222,11111222' 
TABS,ioos:station:wmo:42047:1,2007-09-01T07:39:00Z,27.8966,-93.5973,4.0,3.228188346,101.7976415,6.15,'11111222,11111222,11111222' 
TABS,ioos:station:wmo:42047:1,2007-09-01T08:09:00Z,27.8966,-93.5973,4.0,3.068631617,66.77652607,4.63,'11111222,11111222,11111222' 
TABS,ioos:station:wmo:42047:1,2007-09-01T08:39:00Z,27.8966,-93.5973,4.0,4.794882689,127.9696384,6.7,'11111222,11111222,11111222' 
TABS,ioos:station:wmo:42047:1,2007-09-01T09:09:00Z,27.8966,-93.5973,4.0,3.646107513,108.385634,4.69,'11111222,11111222,11111222' 
TABS,ioos:station:wmo:42047:1,2007-09-01T09:39:00Z,27.8966,-93.5973,4.0,3.895253522,116.3680664,4.83,'11111222,11111222,11111222' 
TABS,ioos:station:wmo:42047:1,2007-09-01T10:09:00Z,27.8966,-93.5973,4.0,2.610306495,89.12155364,4.15,'11111222,11111222,11111222' 
TABS,ioos:station:wmo:42047:1,2007-09-01T10:39:00Z,27.8966,-93.5973,4.0,2.943331446,87.27327446,4.48,'11111222,11111222,11111222' 
TABS,ioos:station:wmo:42047:1,2007-09-01T11:09:00Z,27.8966,-93.5973,4.0,2.962330164,95.22985946,4.35,'11111222,11111222,11111222' 
TABS,ioos:station:wmo:42047:1,2007-09-01T11:39:00Z,27.8966,-93.5973,4.0,2.265259367,73.32460039,3.42,'11111222,11111222,11111222' 
TABS,ioos:station:wmo:42047:1,2007-09-01T12:09:00Z,27.8966,-93.5973,4.0,1.567067325,33.28415217,2.61,'11111222,11111222,11111222' 
TABS,ioos:station:wmo:42047:1,2007-09-01T12:39:00Z,27.8966,-93.5973,4.0,1.556309738,5.160875506,2.47,'11111222,11111222,11111222' 
TABS,ioos:station:wmo:42047:1,2007-09-01T13:09:00Z,27.8966,-93.5973,4.0,4.77654687,266.9998286,8.62,'11111222,11111222,11111222' 
TABS,ioos:station:wmo:42047:1,2007-09-01T13:39:00Z,27.8966,-93.5973,4.0,2.904496514,11.11626063,6.75,'11111222,11111222,11111222' 
TABS,ioos:station:wmo:42047:1,2007-09-01T14:09:00Z,27.8966,-93.5973,4.0,2.658006772,53.25910298,6.16,'11111222,11111222,11111222' 
TABS,ioos:station:wmo:42047:1,2007-09-01T14:39:00Z,27.8966,-93.5973,4.0,1.668682115,95.84766269,3.0,'11111222,11111222,11111222' 
TABS,ioos:station:wmo:42047:1,2007-09-01T15:09:00Z,27.8966,-93.5973,4.0,1.914366736,122.1960796,3.64,'11111222,11111222,11111222' 
TABS,ioos:station:wmo:42047:1,2007-09-01T15:39:00Z,27.8966,-93.5973,4.0,1.781375873,69.63180611,3.12,'11111222,11111222,11111222' 
TABS,ioos:station:wmo:42047:1,2007-09-01T16:09:00Z,27.8966,-93.5973,4.0,1.62788206,26.24997053,2.86,'11111222,11111222,11111222' 
TABS,ioos:station:wmo:42047:1,2007-09-01T16:39:00Z,27.8966,-93.5973,4.0,2.143501808,24.53217457,3.96,'11111222,11111222,11111222' 
TABS,ioos:station:wmo:42047:1,2007-09-01T17:09:00Z,27.8966,-93.5973,4.0,2.251577225,18.11281299,3.97,'11111222,11111222,11111222' 
TABS,ioos:station:wmo:42047:1,2007-09-01T17:39:00Z,27.8966,-93.5973,4.0,2.358474083,22.43272801,4.32,'11111222,11111222,11111222' 
TABS,ioos:station:wmo:42047:1,2007-09-01T18:09:00Z,27.8966,-93.5973,4.0,2.592682009,48.43954596,4.21,'11111222,11111222,11111222' 
TABS,ioos:station:wmo:42047:1,2007-09-01T18:39:00Z,27.8966,-93.5973,4.0,2.924790591,54.46198439,5.38,'11111222,11111222,11111222' 
TABS,ioos:station:wmo:42047:1,2007-09-01T19:09:00Z,27.8966,-93.5973,4.0,3.488552709,62.70007071,5.89,'11111222,11111222,11111222' 
TABS,ioos:station:wmo:42047:1,2007-09-01T19:39:00Z,27.8966,-93.5973,4.0,4.706846078,72.95058798,6.6,'11111222,11111222,11111222' 
TABS,ioos:station:wmo:42047:1,2007-09-01T20:09:00Z,27.8966,-93.5973,4.0,4.810582085,72.58164902,7.32,'11111222,11111222,11111222' 
TABS,ioos:station:wmo:42047:1,2007-09-01T20:39:00Z,27.8966,-93.5973,4.0,3.464130483,123.4610448,6.56,'11111222,11111222,11111222' 
TABS,ioos:station:wmo:42047:1,2007-09-01T21:09:00Z,27.8966,-93.5973,4.0,1.508409759,161.4451883,7.3,'11111222,11111222,11111222' 
TABS,ioos:station:wmo:42047:1,2007-09-01T21:39:00Z,27.8966,-93.5973,4.0,5.097891721,77.65365849,6.82,'11111222,11111222,11111222' 
TABS,ioos:station:wmo:42047:1,2007-09-01T22:09:00Z,27.8966,-93.5973,4.0,4.802832498,82.3418873,6.02,'11111222,11111222,11111222' 
TABS,ioos:station:wmo:42047:1,2007-09-01T22:39:00Z,27.8966,-93.5973,4.0,3.36808551,74.147688,4.84,'11111222,11111222,11111222' 
TABS,ioos:station:wmo:42047:1,2007-09-02T01:09:00Z,27.8966,-93.5973,4.0,4.100268284,85.94383926,5.4,'11111222,11111222,11111222' 
TABS,ioos:station:wmo:42047:1,2007-09-02T01:39:00Z,27.8966,-93.5973,4.0,5.094045544,115.9617907,6.6,'11111222,11111222,11111222' 
TABS,ioos:station:wmo:42047:1,2007-09-02T02:09:00Z,27.8966,-93.5973,4.0,1.559262646,289.4807547,4.73,'11111222,11111222,11111222' 
TABS,ioos:station:wmo:42047:1,2007-09-02T02:39:00Z,27.8966,-93.5973,4.0,1.155205609,258.0091931,3.81,'11111222,11111222,11111222' 
TABS,ioos:station:wmo:42047:1,2007-09-02T03:09:00Z,27.8966,-93.5973,4.0,1.102587865,231.2591269,3.1,'11111222,11111222,11111222' 
TABS,ioos:station:wmo:42047:1,2007-09-02T03:39:00Z,27.8966,-93.5973,4.0,0.929139387,261.9571246,2.66,'11111222,11111222,11111222' 
TABS,ioos:station:wmo:42047:1,2007-09-02T04:09:00Z,27.8966,-93.5973,4.0,0.938616002,218.9459275,3.01,'11111222,11111222,11111222' 
TABS,ioos:station:wmo:42047:1,2007-09-02T04:39:00Z,27.8966,-93.5973,4.0,2.250355527,245.0293092,3.46,'11111222,11111222,11111222' 
TABS,ioos:station:wmo:42047:1,2007-09-02T05:09:00Z,27.8966,-93.5973,4.0,2.663719204,264.1824057,3.98,'11111222,11111222,11111222' 
TABS,ioos:station:wmo:42047:1,2007-09-02T05:39:00Z,27.8966,-93.5973,4.0,3.498642594,248.7156264,5.18,'11111222,11111222,11111222' 
TABS,ioos:station:wmo:42047:1,2007-09-02T06:09:00Z,27.8966,-93.5973,4.0,3.082742286,264.7887563,4.26,'11111222,11111222,11111222' 
TABS,ioos:station:wmo:42047:1,2007-09-02T06:39:00Z,27.8966,-93.5973,4.0,3.284448203,276.9951759,4.47,'11111222,11111222,11111222' 
TABS,ioos:station:wmo:42047:1,2007-09-02T07:09:00Z,27.8966,-93.5973,4.0,3.398484957,265.9504278,4.72,'11111222,11111222,11111222' 
TABS,ioos:station:wmo:42047:1,2007-09-02T07:39:00Z,27.8966,-93.5973,4.0,3.646601157,257.4882637,4.89,'11111222,11111222,11111222' 
TABS,ioos:station:wmo:42047:1,2007-09-02T08:09:00Z,27.8966,-93.5973,4.0,3.305525677,240.2551883,4.23,'11111222,11111222,11111222' 
TABS,ioos:station:wmo:42047:1,2007-09-02T08:39:00Z,27.8966,-93.5973,4.0,4.000312488,233.8463468,4.86,'11111222,11111222,11111222' 
TABS,ioos:station:wmo:42047:1,2007-09-02T09:09:00Z,27.8966,-93.5973,4.0,3.820471175,232.230331,4.66,'11111222,11111222,11111222' 
TABS,ioos:station:wmo:42047:1,2007-09-02T09:39:00Z,27.8966,-93.5973,4.0,3.754810248,234.3204969,4.83,'11111222,11111222,11111222' 
TABS,ioos:station:wmo:42047:1,2007-09-02T10:09:00Z,27.8966,-93.5973,4.0,3.338637447,265.8777118,4.9,'11111222,11111222,11111222' 
TABS,ioos:station:wmo:42047:1,2007-09-02T10:39:00Z,27.8966,-93.5973,4.0,3.896164781,247.5159326,5.45,'11111222,11111222,11111222' 
TABS,ioos:station:wmo:42047:1,2007-09-02T11:09:00Z,27.8966,-93.5973,4.0,3.877963383,250.2567752,5.62,'11111222,11111222,11111222' 
TABS,ioos:station:wmo:42047:1,2007-09-02T11:39:00Z,27.8966,-93.5973,4.0,3.411421991,261.0623201,5.14,'11111222,11111222,11111222' 
TABS,ioos:station:wmo:42047:1,2007-09-02T12:09:00Z,27.8966,-93.5973,4.0,3.626403177,253.6639953,6.38,'11111222,11111222,11111222' 
TABS,ioos:station:wmo:42047:1,2007-09-02T12:39:00Z,27.8966,-93.5973,4.0,4.136520277,246.0375671,6.08,'11111222,11111222,11111222' 
TABS,ioos:station:wmo:42047:1,2007-09-02T13:09:00Z,27.8966,-93.5973,4.0,4.405053916,235.2637965,5.89,'11111222,11111222,11111222' 
TABS,ioos:station:wmo:42047:1,2007-09-02T13:39:00Z,27.8966,-93.5973,4.0,4.582455674,245.5043635,6.58,'11111222,11111222,11111222' 
TABS,ioos:station:wmo:42047:1,2007-09-02T14:09:00Z,27.8966,-93.5973,4.0,3.755422746,264.8055832,6.42,'11111222,11111222,11111222' 
TABS,ioos:station:wmo:42047:1,2007-09-02T14:39:00Z,27.8966,-93.5973,4.0,4.845203814,252.4626028,6.4,'11111222,11111222,11111222' 
TABS,ioos:station:wmo:42047:1,2007-09-02T15:09:00Z,27.8966,-93.5973,4.0,4.681805207,248.9713245,5.96,'11111222,11111222,11111222' 
TABS,ioos:station:wmo:42047:1,2007-09-02T15:39:00Z,27.8966,-93.5973,4.0,4.116466932,246.6735311,5.81,'11111222,11111222,11111222' 
TABS,ioos:station:wmo:42047:1,2007-09-02T16:09:00Z,27.8966,-93.5973,4.0,3.683177976,241.2778716,4.89,'11111222,11111222,11111222' 
TABS,ioos:station:wmo:42047:1,2007-09-02T16:39:00Z,27.8966,-93.5973,4.0,3.98246155,241.504428,4.9,'11111222,11111222,11111222' 
TABS,ioos:station:wmo:42047:1,2007-09-02T17:39:00Z,27.8966,-93.5973,4.0,1.411736519,177.1580792,6.23,'11111222,11111222,11111222' 
TABS,ioos:station:wmo:42047:1,2007-09-02T18:09:00Z,27.8966,-93.5973,4.0,4.245197286,205.2371927,5.63,'11111222,11111222,11111222' 
TABS,ioos:station:wmo:42047:1,2007-09-02T18:39:00Z,27.8966,-93.5973,4.0,3.024913222,185.691943,4.61,'11111222,11111222,11111222' 
TABS,ioos:station:wmo:42047:1,2007-09-02T19:09:00Z,27.8966,-93.5973,4.0,2.291724242,147.8358952,3.55,'11111222,11111222,11111222' 
TABS,ioos:station:wmo:42047:1,2007-09-02T19:39:00Z,27.8966,-93.5973,4.0,1.03247276,135.7851385,2.5,'11111222,11111222,11111222' 
TABS,ioos:station:wmo:42047:1,2007-09-02T20:39:00Z,27.8966,-93.5973,4.0,1.36341483,192.7113133,2.61,'11111222,11111222,11111222' 
TABS,ioos:station:wmo:42047:1,2007-09-02T21:39:00Z,27.8966,-93.5973,4.0,4.672312061,253.0776272,9.47,'11111222,11111222,11111222' 
TABS,ioos:station:wmo:42047:1,2007-09-02T22:09:00Z,27.8966,-93.5973,4.0,3.550014084,270.1613958,9.17,'11111222,11111222,11111222' 
TABS,ioos:station:wmo:42047:1,2007-09-02T22:39:00Z,27.8966,-93.5973,4.0,1.29247824,176.4515368,4.33,'11111222,11111222,11111222' 
TABS,ioos:station:wmo:42047:1,2007-09-02T23:09:00Z,27.8966,-93.5973,4.0,2.01109423,201.5899517,4.55,'11111222,11111222,11111222' 
TABS,ioos:station:wmo:42047:1,2007-09-02T23:39:00Z,27.8966,-93.5973,4.0,4.344801491,218.927663,5.57,'11111222,11111222,11111222' 
TABS,ioos:station:wmo:42047:1,2007-09-03T00:09:00Z,27.8966,-93.5973,4.0,3.512164575,216.3153547,4.68,'11111222,11111222,11111222' 
TABS,ioos:station:wmo:42047:1,2007-09-03T00:39:00Z,27.8966,-93.5973,4.0,3.030528007,192.3854425,4.3,'11111222,11111222,11111222' 
TABS,ioos:station:wmo:42047:1,2007-09-03T01:09:00Z,27.8966,-93.5973,4.0,3.125779903,176.5153562,3.94,'11111222,11111222,11111222' 
TABS,ioos:station:wmo:42047:1,2007-09-03T01:39:00Z,27.8966,-93.5973,4.0,2.20730605,161.2369665,3.31,'11111222,11111222,11111222' 
TABS,ioos:station:wmo:42047:1,2007-09-03T02:09:00Z,27.8966,-93.5973,4.0,2.53505424,146.74902,4.09,'11111222,11111222,11111222' 
TABS,ioos:station:wmo:42047:1,2007-09-03T02:39:00Z,27.8966,-93.5973,4.0,3.032754524,154.6181492,4.63,'11111222,11111222,11111222' 
TABS,ioos:station:wmo:42047:1,2007-09-03T03:09:00Z,27.8966,-93.5973,4.0,3.042712606,146.9369494,4.86,'11111222,11111222,11111222' 
TABS,ioos:station:wmo:42047:1,2007-09-03T03:39:00Z,27.8966,-93.5973,4.0,3.301060436,156.6193498,5.03,'11111222,11111222,11111222' 
TABS,ioos:station:wmo:42047:1,2007-09-03T04:09:00Z,27.8966,-93.5973,4.0,3.372358225,157.6940576,4.6,'11111222,11111222,11111222' 
TABS,ioos:station:wmo:42047:1,2007-09-03T04:39:00Z,27.8966,-93.5973,4.0,3.288920796,161.0144021,4.68,'11111222,11111222,11111222' 
TABS,ioos:station:wmo:42047:1,2007-09-03T05:09:00Z,27.8966,-93.5973,4.0,2.965687104,154.6449044,4.49,'11111222,11111222,11111222' 
TABS,ioos:station:wmo:42047:1,2007-09-03T05:39:00Z,27.8966,-93.5973,4.0,3.070016287,159.2039356,5.72,'11111222,11111222,11111222' 
TABS,ioos:station:wmo:42047:1,2007-09-03T06:09:00Z,27.8966,-93.5973,4.0,3.854166577,228.5764312,5.44,'11111222,11111222,11111222' 
TABS,ioos:station:wmo:42047:1,2007-09-03T06:39:00Z,27.8966,-93.5973,4.0,3.371305385,190.9434827,5.86,'11111222,11111222,11111222' 
TABS,ioos:station:wmo:42047:1,2007-09-03T07:09:00Z,27.8966,-93.5973,4.0,3.287628324,185.9362259,5.52,'11111222,11111222,11111222' 
TABS,ioos:station:wmo:42047:1,2007-09-03T07:39:00Z,27.8966,-93.5973,4.0,2.870627109,181.1978544,4.76,'11111222,11111222,11111222' 
TABS,ioos:station:wmo:42047:1,2007-09-03T08:09:00Z,27.8966,-93.5973,4.0,3.255764119,190.6198409,5.69,'11111222,11111222,11111222' 
TABS,ioos:station:wmo:42047:1,2007-09-03T08:39:00Z,27.8966,-93.5973,4.0,4.732029163,166.4338664,9.2,'11111222,11111222,11111222' 
TABS,ioos:station:wmo:42047:1,2007-09-03T09:09:00Z,27.8966,-93.5973,4.0,3.001066477,178.4726886,5.05,'11111222,11111222,11111222' 
TABS,ioos:station:wmo:42047:1,2007-09-03T09:39:00Z,27.8966,-93.5973,4.0,2.520079364,179.5454927,4.67,'11111222,11111222,11111222' 
TABS,ioos:station:wmo:42047:1,2007-09-03T10:09:00Z,27.8966,-93.5973,4.0,1.996421799,184.5970072,4.19,'11111222,11111222,11111222' 
TABS,ioos:station:wmo:42047:1,2007-09-03T10:39:00Z,27.8966,-93.5973,4.0,2.260199106,204.2972503,4.63,'11111222,11111222,11111222' 
TABS,ioos:station:wmo:42047:1,2007-09-03T11:09:00Z,27.8966,-93.5973,4.0,3.090145628,216.313771,5.37,'11111222,11111222,11111222' 
TABS,ioos:station:wmo:42047:1,2007-09-03T11:39:00Z,27.8966,-93.5973,4.0,3.331696265,212.497706,4.97,'11111222,11111222,11111222' 
TABS,ioos:station:wmo:42047:1,2007-09-03T12:09:00Z,27.8966,-93.5973,4.0,4.995207703,248.26254,7.53,'11111222,11111222,11111222' 
TABS,ioos:station:wmo:42047:1,2007-09-03T12:39:00Z,27.8966,-93.5973,4.0,3.500357125,225.5788294,5.22,'11111222,11111222,11111222' 
TABS,ioos:station:wmo:42047:1,2007-09-03T13:09:00Z,27.8966,-93.5973,4.0,3.175547197,223.8517939,4.94,'11111222,11111222,11111222' 
TABS,ioos:station:wmo:42047:1,2007-09-03T13:39:00Z,27.8966,-93.5973,4.0,2.753270782,227.5024358,5.17,'11111222,11111222,11111222' 
TABS,ioos:station:wmo:42047:1,2007-09-03T14:09:00Z,27.8966,-93.5973,4.0,2.521269521,221.7846288,4.84,'11111222,11111222,11111222' 
TABS,ioos:station:wmo:42047:1,2007-09-03T14:39:00Z,27.8966,-93.5973,4.0,2.792006447,233.0070606,4.56,'11111222,11111222,11111222' 
TABS,ioos:station:wmo:42047:1,2007-09-03T15:09:00Z,27.8966,-93.5973,4.0,2.642006813,233.00007,4.49,'11111222,11111222,11111222' 
TABS,ioos:station:wmo:42047:1,2007-09-03T15:39:00Z,27.8966,-93.5973,4.0,2.469109151,244.5766209,5.66,'11111222,11111222,11111222' 
TABS,ioos:station:wmo:42047:1,2007-09-03T16:09:00Z,27.8966,-93.5973,4.0,1.116064514,216.2539634,3.68,'11111222,11111222,11111222' 
TABS,ioos:station:wmo:42047:1,2007-09-03T16:39:00Z,27.8966,-93.5973,4.0,2.552645686,246.4477914,4.88,'11111222,11111222,11111222' 
TABS,ioos:station:wmo:42047:1,2007-09-03T17:09:00Z,27.8966,-93.5973,4.0,1.824390309,225.4442486,4.25,'11111222,11111222,11111222' 
TABS,ioos:station:wmo:42047:1,2007-09-03T17:39:00Z,27.8966,-93.5973,4.0,1.967587355,227.4717642,4.22,'11111222,11111222,11111222' 
TABS,ioos:station:wmo:42047:1,2007-09-03T18:09:00Z,27.8966,-93.5973,4.0,1.843908891,245.658967,4.87,'11111222,11111222,11111222' 
TABS,ioos:station:wmo:42047:1,2007-09-03T18:39:00Z,27.8966,-93.5973,4.0,1.934373284,273.8534714,4.31,'11111222,11111222,11111222' 
TABS,ioos:station:wmo:42047:1,2007-09-03T19:09:00Z,27.8966,-93.5973,4.0,1.60224842,294.3255184,2.88,'11111222,11111222,11111222' 
TABS,ioos:station:wmo:42047:1,2007-09-03T19:39:00Z,27.8966,-93.5973,4.0,1.29988461,287.4591618,3.29,'11111222,11111222,11111222' 
TABS,ioos:station:wmo:42047:1,2007-09-04T01:09:00Z,27.8966,-93.5973,4.0,3.092604081,118.8030306,4.28,'11111222,11111222,11111222' 
TABS,ioos:station:wmo:42047:1,2007-09-04T01:39:00Z,27.8966,-93.5973,4.0,4.769926624,109.7269194,6.58,'11111222,11111222,11111222' 
TABS,ioos:station:wmo:42047:1,2007-09-04T02:09:00Z,27.8966,-93.5973,4.0,4.42435306,109.1315225,6.5,'11111222,11111222,11111222' 
TABS,ioos:station:wmo:42047:1,2007-09-04T02:39:00Z,27.8966,-93.5973,4.0,4.86477132,109.7017341,6.52,'11111222,11111222,11111222' 
TABS,ioos:station:wmo:42047:1,2007-09-04T03:09:00Z,27.8966,-93.5973,4.0,4.835080144,119.2160935,6.36,'11111222,11111222,11111222' 
TABS,ioos:station:wmo:42047:1,2007-09-04T03:39:00Z,27.8966,-93.5973,4.0,5.222738745,130.1851487,6.71,'11111222,11111222,11111222' 
TABS,ioos:station:wmo:42047:1,2007-09-04T04:09:00Z,27.8966,-93.5973,4.0,5.858028679,131.6094956,7.42,'11111222,11111222,11111222' 
TABS,ioos:station:wmo:42047:1,2007-09-04T04:39:00Z,27.8966,-93.5973,4.0,5.515840824,140.0750342,7.18,'11111222,11111222,11111222' 
TABS,ioos:station:wmo:42047:1,2007-09-04T05:09:00Z,27.8966,-93.5973,4.0,5.578261378,145.3700991,7.39,'11111222,11111222,11111222' 
TABS,ioos:station:wmo:42047:1,2007-09-04T05:39:00Z,27.8966,-93.5973,4.0,5.4384005,143.8257515,7.14,'11111222,11111222,11111222' 
TABS,ioos:station:wmo:42047:1,2007-09-04T06:09:00Z,27.8966,-93.5973,4.0,5.210239918,148.6593386,6.74,'11111222,11111222,11111222' 
TABS,ioos:station:wmo:42047:1,2007-09-04T06:39:00Z,27.8966,-93.5973,4.0,5.391150156,158.9093368,7.03,'11111222,11111222,11111222' 
TABS,ioos:station:wmo:42047:1,2007-09-04T07:09:00Z,27.8966,-93.5973,4.0,5.600401771,161.4682484,7.83,'11111222,11111222,11111222' 
TABS,ioos:station:wmo:42047:1,2007-09-04T07:39:00Z,27.8966,-93.5973,4.0,5.397258563,169.1066899,7.18,'11111222,11111222,11111222' 
TABS,ioos:station:wmo:42047:1,2007-09-04T08:09:00Z,27.8966,-93.5973,4.0,4.839938016,176.3278872,7.07,'11111222,11111222,11111222' 
TABS,ioos:station:wmo:42047:1,2007-09-04T08:39:00Z,27.8966,-93.5973,4.0,4.598314909,189.1347593,6.46,'11111222,11111222,11111222' 
TABS,ioos:station:wmo:42047:1,2007-09-04T09:09:00Z,27.8966,-93.5973,4.0,3.853686547,191.2226423,6.19,'11111222,11111222,11111222' 
TABS,ioos:station:wmo:42047:1,2007-09-04T09:39:00Z,27.8966,-93.5973,4.0,3.797959979,198.1011736,5.74,'11111222,11111222,11111222' 
TABS,ioos:station:wmo:42047:1,2007-09-04T10:09:00Z,27.8966,-93.5973,4.0,3.71845398,204.6353904,5.56,'11111222,11111222,11111222' 
TABS,ioos:station:wmo:42047:1,2007-09-04T10:39:00Z,27.8966,-93.5973,4.0,3.927301873,213.8925135,5.82,'11111222,11111222,11111222' 
TABS,ioos:station:wmo:42047:1,2007-09-04T11:09:00Z,27.8966,-93.5973,4.0,3.510911563,218.1756795,5.46,'11111222,11111222,11111222' 
TABS,ioos:station:wmo:42047:1,2007-09-04T11:39:00Z,27.8966,-93.5973,4.0,3.69112449,224.7805828,5.61,'11111222,11111222,11111222' 
TABS,ioos:station:wmo:42047:1,2007-09-04T12:09:00Z,27.8966,-93.5973,4.0,3.532817572,231.8975167,5.56,'11111222,11111222,11111222' 
TABS,ioos:station:wmo:42047:1,2007-09-04T12:39:00Z,27.8966,-93.5973,4.0,3.535095473,238.063412,6.01,'11111222,11111222,11111222' 
TABS,ioos:station:wmo:42047:1,2007-09-04T13:09:00Z,27.8966,-93.5973,4.0,4.06030787,256.6140704,5.96,'11111222,11111222,11111222' 
TABS,ioos:station:wmo:42047:1,2007-09-04T13:39:00Z,27.8966,-93.5973,4.0,3.372906758,261.9900331,5.24,'11111222,11111222,11111222' 
TABS,ioos:station:wmo:42047:1,2007-09-04T14:09:00Z,27.8966,-93.5973,4.0,2.961435463,264.9632291,4.71,'11111222,11111222,11111222' 
TABS,ioos:station:wmo:42047:1,2007-09-04T14:39:00Z,27.8966,-93.5973,4.0,2.220292773,229.5667402,4.39,'11111222,11111222,11111222' 
TABS,ioos:station:wmo:42047:1,2007-09-04T15:09:00Z,27.8966,-93.5973,4.0,1.511621646,235.7843779,3.66,'11111222,11111222,11111222' 
TABS,ioos:station:wmo:42047:1,2007-09-04T15:39:00Z,27.8966,-93.5973,4.0,2.200090907,270.5208552,3.97,'11111222,11111222,11111222' 
TABS,ioos:station:wmo:42047:1,2007-09-04T16:09:00Z,27.8966,-93.5973,4.0,2.451224184,297.7149297,4.0,'11111222,11111222,11111222' 
TABS,ioos:station:wmo:42047:1,2007-09-04T16:39:00Z,27.8966,-93.5973,4.0,2.4060133,307.0603199,3.77,'11111222,11111222,11111222' 
TABS,ioos:station:wmo:42047:1,2007-09-04T17:09:00Z,27.8966,-93.5973,4.0,2.675256997,317.4236604,3.85,'11111222,11111222,11111222' 
TABS,ioos:station:wmo:42047:1,2007-09-04T17:39:00Z,27.8966,-93.5973,4.0,2.182956711,332.1435189,3.64,'11111222,11111222,11111222' 
TABS,ioos:station:wmo:42047:1,2007-09-04T18:09:00Z,27.8966,-93.5973,4.0,2.127768784,344.4613008,3.91,'11111222,11111222,11111222' 
TABS,ioos:station:wmo:42047:1,2007-09-04T18:39:00Z,27.8966,-93.5973,4.0,2.87,359.9997895,4.36,'11111222,11144222,11111222' 
TABS,ioos:station:wmo:42047:1,2007-09-04T19:09:00Z,27.8966,-93.5973,4.0,2.609233604,22.53514463,4.39,'11111222,11111222,11111222' 
TABS,ioos:station:wmo:42047:1,2007-09-04T19:39:00Z,27.8966,-93.5973,4.0,2.941700189,45.550587,4.69,'11111222,11111222,11111222' 
TABS,ioos:station:wmo:42047:1,2007-09-04T20:39:00Z,27.8966,-93.5973,4.0,4.206007608,53.02078891,5.7,'11111222,11111222,11111222' 
TABS,ioos:station:wmo:42047:1,2007-09-04T21:39:00Z,27.8966,-93.5973,4.0,3.609432088,60.45165882,5.05,'11111222,11111222,11111222' 
TABS,ioos:station:wmo:42047:1,2007-09-05T03:09:00Z,27.8966,-93.5973,4.0,7.420626658,124.846875,9.0,'11111222,11111222,11111222' 
TABS,ioos:station:wmo:42047:1,2007-09-05T03:39:00Z,27.8966,-93.5973,4.0,7.229744117,133.3189302,9.06,'11111222,11111222,11111222' 
TABS,ioos:station:wmo:42047:1,2007-09-05T04:09:00Z,27.8966,-93.5973,4.0,7.552747844,134.1420182,9.32,'11111222,11111222,11111222' 
TABS,ioos:station:wmo:42047:1,2007-09-05T04:39:00Z,27.8966,-93.5973,4.0,7.262100247,141.2049548,8.82,'11111222,11111222,11111222' 
TABS,ioos:station:wmo:42047:1,2007-09-05T05:09:00Z,27.8966,-93.5973,4.0,7.340027248,142.9742805,8.78,'11111222,11111222,11111222' 
TABS,ioos:station:wmo:42047:1,2007-09-05T05:39:00Z,27.8966,-93.5973,4.0,7.428680906,160.9067631,9.1,'11111222,11111222,11111222' 
TABS,ioos:station:wmo:42047:1,2007-09-05T06:09:00Z,27.8966,-93.5973,4.0,6.844158093,176.3142228,8.74,'11111222,11111222,11111222' 
TABS,ioos:station:wmo:42047:1,2007-09-05T06:39:00Z,27.8966,-93.5973,4.0,6.413688486,192.1510931,8.05,'11111222,11111222,11111222' 
TABS,ioos:station:wmo:42047:1,2007-09-05T07:09:00Z,27.8966,-93.5973,4.0,6.207688781,196.5668075,8.05,'11111222,11111222,11111222' 
TABS,ioos:station:wmo:42047:1,2007-09-05T07:39:00Z,27.8966,-93.5973,4.0,5.606790526,198.7259545,8.41,'11111222,11111222,11111222' 
TABS,ioos:station:wmo:42047:1,2007-09-05T08:09:00Z,27.8966,-93.5973,4.0,5.247856705,202.1665044,8.4,'11111222,11111222,11111222' 
TABS,ioos:station:wmo:42047:1,2007-09-05T08:39:00Z,27.8966,-93.5973,4.0,4.560274115,203.2482391,7.27,'11111222,11111222,11111222' 
TABS,ioos:station:wmo:42047:1,2007-09-05T09:09:00Z,27.8966,-93.5973,4.0,4.782070681,217.1815384,7.24,'11111222,11111222,11111222' 
TABS,ioos:station:wmo:42047:1,2007-09-05T09:39:00Z,27.8966,-93.5973,4.0,4.299593004,211.3981173,6.59,'11111222,11111222,11111222' 
TABS,ioos:station:wmo:42047:1,2007-09-05T10:09:00Z,27.8966,-93.5973,4.0,4.355881082,206.7416743,6.34,'11111222,11111222,11111222' 
TABS,ioos:station:wmo:42047:1,2007-09-05T10:39:00Z,27.8966,-93.5973,4.0,3.77115367,200.1649957,6.45,'11111222,11111222,11111222' 
TABS,ioos:station:wmo:42047:1,2007-09-05T11:09:00Z,27.8966,-93.5973,4.0,4.286548728,208.4185873,6.91,'11111222,11111222,11111222' 
TABS,ioos:station:wmo:42047:1,2007-09-05T11:39:00Z,27.8966,-93.5973,4.0,4.365879064,214.4545811,7.92,'11111222,11111222,11111222' 
TABS,ioos:station:wmo:42047:1,2007-09-05T12:09:00Z,27.8966,-93.5973,4.0,4.02236249,216.1008078,7.45,'11111222,11111222,11111222' 